tititudorancea.com
Station Historical Data
Daily Summary for August 8, 2018 Units:  Metric    English   Both
« Previous Day
Next Day »
Daily Weekly Monthly Yearly Custom
  High: Low: Average:
Temperature: -17.8 °C 6.4 °C 9 °C
Dew Point: -17.8 °C 2.6 °C 6.2 °C
Humidity: Humidity % 61 % 83 %
Wind Speed: 0 km/h 0 km/h 15.4 km/h
Wind Gust: 0 km/h - -
Wind:- - WNW
Pressure: 0 hPa 1005.3 hPa -
Precipitation: 5.21 mm    
Historical Graphs
 
 
Ararat weather Find more about Weather in Ararat, AU


 



 


Tabular Data for August 8, 2018
Time Temperature Dew Point Pressure Wind Wind Speed Wind Gust Humidity Rainfall Rate (Hourly)
-17.8 °C -17.8 °C 0 hPa Calm     Humidity % 0 mm
00:04 7.8 °C 6.8 °C 1007.7 hPa NNW 25.9 km/h 14.2 km/h 93 % 1.4 mm
00:09 7.8 °C 6.8 °C 1008 hPa NW 25.7 km/h 10.3 km/h 93 % 1.6 mm
00:14 7.8 °C 6.8 °C 1008 hPa North 22.5 km/h 13.7 km/h 93 % 1.8 mm
00:19 7.8 °C 6.7 °C 1008 hPa North 18.5 km/h 8.7 km/h 93 % 2.01 mm
00:24 7.8 °C 6.7 °C 1008 hPa North 18.5 km/h 12.7 km/h 93 % 2.21 mm
00:29 7.8 °C 6.7 °C 1007.7 hPa North 18.5 km/h 10.9 km/h 93 % 2.21 mm
00:34 7.8 °C 6.9 °C 1007.7 hPa North 14.8 km/h 12.2 km/h 94 % 2.21 mm
00:39 7.8 °C 6.9 °C 1007.7 hPa North 18.5 km/h 13.4 km/h 94 % 2.39 mm
00:44 7.8 °C 6.9 °C 1007.7 hPa North 13 km/h 7.7 km/h 94 % 2.59 mm
00:49 7.8 °C 6.9 °C 1007.3 hPa North 14.8 km/h 10.3 km/h 94 % 0 mm
00:54 7.7 °C 6.8 °C 1007.3 hPa North 19.3 km/h 11.9 km/h 94 % 2.79 mm
00:59 7.7 °C 6.8 °C 1007.3 hPa North 13 km/h 7.6 km/h 94 % 0 mm
01:04 7.7 °C 6.8 °C 1007.3 hPa NNW 18.5 km/h 8 km/h 94 % 2.59 mm
01:09 7.8 °C 6.9 °C 1007.3 hPa North 14.8 km/h 6.6 km/h 94 % 2.59 mm
01:14 7.8 °C 6.9 °C 1007.3 hPa North 18.5 km/h 9 km/h 94 % 2.59 mm
01:19 7.8 °C 6.9 °C 1007 hPa North 13 km/h 10 km/h 94 % 2.21 mm
01:24 7.8 °C 6.9 °C 1007 hPa North 14.8 km/h 9 km/h 94 % 2.01 mm
01:29 7.8 °C 6.9 °C 1006.7 hPa North 24.1 km/h 15 km/h 94 % 2.01 mm
01:34 7.9 °C 7 °C 1006.7 hPa NNW 20.4 km/h 15 km/h 94 % 1.8 mm
01:39 7.9 °C 7.1 °C 1006.7 hPa NW 25.9 km/h 12.7 km/h 94 % 1.4 mm
01:44 7.9 °C 7.2 °C 1006.7 hPa North 18.5 km/h 14.3 km/h 95 % 1.19 mm
01:49 8 °C 7.1 °C 1006.7 hPa North 18.5 km/h 12.1 km/h 94 % 0.99 mm
01:54 8 °C 7.1 °C 1006.7 hPa North 18.5 km/h 20.9 km/h 94 % 0.79 mm
01:59 8 °C 7.1 °C 1006.7 hPa NNW 27.8 km/h 15.4 km/h 94 % 0.61 mm
02:04 8 °C 7.1 °C 1006.7 hPa NNW 29.6 km/h 12.6 km/h 94 % 0.61 mm
02:09 8 °C 7.1 °C 1006.7 hPa North 22.2 km/h 12.7 km/h 94 % 0.41 mm
02:14 8 °C 7.1 °C 1006.7 hPa NNW 25.9 km/h 18.8 km/h 94 % 0.2 mm
02:19 8.1 °C 7.2 °C 1006.7 hPa North 20.4 km/h 19.8 km/h 94 % 0.2 mm
02:24 8.1 °C 7.2 °C 1005.6 hPa North 24.1 km/h 17.2 km/h 94 % 0.2 mm
02:29 8.1 °C 7.2 °C 1006.3 hPa North 22.2 km/h 10.1 km/h 94 % 0.2 mm
02:34 8.1 °C 7.2 °C 1006.3 hPa North 22.2 km/h 11.6 km/h 94 % 0.2 mm
02:39 8.1 °C 7.2 °C 1006.3 hPa North 29.6 km/h 21.9 km/h 94 % 0.2 mm
02:44 8.1 °C 7.2 °C 1006 hPa NNW 25.9 km/h 13.7 km/h 94 % 0.2 mm
02:49 8.1 °C 7.2 °C 1006 hPa NNW 24.1 km/h 13.7 km/h 94 % 0.41 mm
02:54 8.1 °C 7.2 °C 1006 hPa North 33.3 km/h 18.7 km/h 94 % 0.41 mm
02:59 8.1 °C 7.2 °C 1006 hPa North 18.5 km/h 13 km/h 94 % 0.41 mm
03:04 8.1 °C 7.2 °C 1006 hPa North 20.4 km/h 9 km/h 94 % 0.41 mm
03:09 8.1 °C 7.2 °C 1005.6 hPa North 18.5 km/h 14.3 km/h 94 % 0.61 mm
03:14 8.1 °C 7.2 °C 1006 hPa North 20.4 km/h 12.1 km/h 94 % 0.61 mm
03:19 8.1 °C 7.2 °C 1006 hPa North 18.5 km/h 15.6 km/h 94 % 0.61 mm
03:24 8.1 °C 7.2 °C 1006 hPa North 22.5 km/h 15.6 km/h 94 % 0.61 mm
03:29 8.1 °C 7.2 °C 1006 hPa NNW 24.1 km/h 16.7 km/h 94 % 0.41 mm
03:34 8.1 °C 7.2 °C 1006 hPa NNW 22.2 km/h 11.1 km/h 94 % 0.41 mm
03:39 8 °C 7.1 °C 1006 hPa NNW 31.5 km/h 16.1 km/h 94 % 0.41 mm
03:44 8.1 °C 7.2 °C 1006 hPa North 16.7 km/h 9.7 km/h 94 % 0.41 mm
03:49 8.1 °C 7.2 °C 1006 hPa North 22.2 km/h 13.5 km/h 94 % 0.2 mm
03:54 8.1 °C 7.2 °C 1006 hPa NNW 24.1 km/h 15 km/h 94 % 0.2 mm
03:59 8.1 °C 7.2 °C 1006 hPa North 25.9 km/h 15.8 km/h 94 % 0.2 mm
04:04 8.1 °C 7.2 °C 1006 hPa North 31.5 km/h 14.2 km/h 94 % 0.2 mm
04:09 8.1 °C 7.2 °C 1006 hPa North 24.1 km/h 21.4 km/h 94 % 0 mm
04:14 8.1 °C 7.2 °C 1006 hPa NNW 22.2 km/h 14.3 km/h 94 % 0.2 mm
04:19 8.1 °C 7.2 °C 1006 hPa NW 18.5 km/h 15.8 km/h 94 % 0.2 mm
04:24 8.1 °C 7.2 °C 1006 hPa NNW 18.5 km/h 15.3 km/h 94 % 0.2 mm
04:29 8.1 °C 7.2 °C 1006 hPa NNW 22.2 km/h 14.6 km/h 94 % 0.2 mm
04:34 8.2 °C 7.4 °C 1006 hPa North 20.4 km/h 18 km/h 95 % 0.2 mm
04:39 8.2 °C 7.3 °C 1006 hPa North 19.3 km/h 14.8 km/h 94 % 0.2 mm
04:44 8.2 °C 7.3 °C 1006 hPa North 20.4 km/h 14.2 km/h 94 % 0.2 mm
04:49 8.2 °C 7.3 °C 1006.3 hPa North 20.4 km/h 15.6 km/h 94 % 0.2 mm
04:54 8.2 °C 7.3 °C 1006 hPa North 16.7 km/h 11.6 km/h 94 % 0.2 mm
04:59 8.2 °C 7.3 °C 1006 hPa NNW 14.8 km/h 10.5 km/h 94 % 0.2 mm
05:04 8.2 °C 7.3 °C 1006 hPa North 16.7 km/h 12.4 km/h 94 % 0.2 mm
05:09 8.2 °C 7.3 °C 1006 hPa North 18.5 km/h 10.5 km/h 94 % 0.2 mm
05:14 8.2 °C 7.3 °C 1006 hPa NNW 16.7 km/h 10.6 km/h 94 % 0.2 mm
05:19 8.2 °C 7.4 °C 1005.6 hPa North 22.2 km/h 11.9 km/h 95 % 0.2 mm
05:24 8.1 °C 7.2 °C 1005.3 hPa North 18.5 km/h 12.7 km/h 94 % 0.2 mm
05:29 8.1 °C 7.2 °C 1005.6 hPa North 18.5 km/h 10.9 km/h 94 % 0.2 mm
05:34 8.1 °C 7.3 °C 1005.6 hPa NNW 18.5 km/h 14.2 km/h 95 % 0.2 mm
05:39 8.2 °C 7.4 °C 1005.6 hPa NNW 18.5 km/h 13 km/h 95 % 0.2 mm
05:44 8.2 °C 7.4 °C 1005.6 hPa NNW 22.2 km/h 8.9 km/h 95 % 0.2 mm
05:49 8.2 °C 7.4 °C 1005.6 hPa NNW 16.7 km/h 9.8 km/h 95 % 0.2 mm
05:54 8.2 °C 7.4 °C 1006 hPa North 20.4 km/h 12.9 km/h 95 % 0.2 mm
05:59 8.2 °C 7.4 °C 1006 hPa North 17.7 km/h 16.6 km/h 95 % 0.2 mm
06:04 8.2 °C 7.4 °C 1006.3 hPa NW 16.7 km/h 8.5 km/h 95 % 0.2 mm
06:09 8.2 °C 7.4 °C 1006 hPa NNW 13 km/h 12.9 km/h 95 % 0.2 mm
06:14 8.2 °C 7.4 °C 1006 hPa NNW 20.4 km/h 9.5 km/h 95 % 0 mm
06:19 8.2 °C 7.4 °C 1006 hPa North 18.5 km/h 9.2 km/h 95 % 0 mm
06:24 8.3 °C 7.5 °C 1006.3 hPa North 16.7 km/h 10.9 km/h 95 % 0 mm
06:29 8.3 °C 7.5 °C 1006 hPa NW 31.5 km/h 14.6 km/h 95 % 0 mm
06:34 8.3 °C 7.5 °C 1006.3 hPa North 22.2 km/h 13 km/h 95 % 0 mm
06:39 8.3 °C 7.5 °C 1006.3 hPa North 16.7 km/h 10.9 km/h 95 % 0 mm
06:44 8.3 °C 7.5 °C 1006.3 hPa North 13 km/h 7.7 km/h 95 % 0 mm
06:49 8.3 °C 7.5 °C 1006.7 hPa NNW 20.9 km/h 11.1 km/h 95 % 0 mm
06:54 8.3 °C 7.5 °C 1006.7 hPa NW 14.8 km/h 8.4 km/h 95 % 0 mm
06:59 8.3 °C 7.5 °C 1006.7 hPa NNW 14.8 km/h 10.5 km/h 95 % 0 mm
07:04 8.3 °C 7.5 °C 1006.7 hPa NNW 14.5 km/h 10 km/h 95 % 0 mm
07:09 8.2 °C 7.4 °C 1006.7 hPa North 13 km/h 10.9 km/h 95 % 0 mm
07:14 8.3 °C 7.5 °C 1007 hPa NNW 11.1 km/h 7.7 km/h 95 % 0 mm
07:19 8.3 °C 7.6 °C 1007 hPa NNW 16.7 km/h 6.9 km/h 95 % 0 mm
07:24 8.3 °C 7.6 °C 1007 hPa NNW 12.9 km/h 8.2 km/h 95 % 0 mm
07:29 8.3 °C 7.6 °C 1007 hPa NNW 11.1 km/h 6.6 km/h 95 % 0 mm
07:34 8.3 °C 7.6 °C 1007 hPa North 13 km/h 6 km/h 95 % 0 mm
07:39 8.4 °C 7.6 °C 1007 hPa NNW 13 km/h 8.2 km/h 95 % 0 mm
07:44 8.4 °C 7.6 °C 1007 hPa North 13 km/h 8.7 km/h 95 % 0 mm
07:49 8.4 °C 7.7 °C 1007.3 hPa NNW 9.3 km/h 6.1 km/h 95 % 0.2 mm
07:54 8.5 °C 7.7 °C 1007 hPa North 13 km/h 8.7 km/h 95 % 0.41 mm
07:59 8.5 °C 7.7 °C 1007 hPa North 17.7 km/h 9.2 km/h 95 % 0.41 mm
08:04 8.4 °C 7.7 °C 1007.3 hPa North 14.8 km/h 8.2 km/h 95 % 0.41 mm
08:09 8.4 °C 7.7 °C 1007.3 hPa North 8 km/h 6.1 km/h 95 % 0.41 mm
08:14 8.5 °C 7.7 °C 1007.3 hPa North 9.7 km/h 4.7 km/h 95 % 0.41 mm
08:19 8.5 °C 7.7 °C 1007.3 hPa North 9.3 km/h 5.8 km/h 95 % 0.41 mm
08:24 8.6 °C 7.8 °C 1007.7 hPa NNW 13 km/h 6.8 km/h 95 % 0.61 mm
08:29 8.7 °C 7.9 °C 1007.3 hPa North 13 km/h 7.1 km/h 95 % 0.61 mm
08:34 8.7 °C 7.9 °C 1007.3 hPa North 13 km/h 7.6 km/h 95 % 0.61 mm
08:39 8.7 °C 7.9 °C 1007.3 hPa North 9.3 km/h 6.6 km/h 95 % 0.61 mm
08:44 8.8 °C 8 °C 1007.3 hPa North 11.3 km/h 9.3 km/h 95 % 0.61 mm
08:49 8.8 °C 8 °C 1007.3 hPa North 13 km/h 8.7 km/h 95 % 0.61 mm
08:54 8.9 °C 8.1 °C 1007.7 hPa NNW 9.3 km/h 5 km/h 95 % 0.41 mm
08:59 9.1 °C 8.5 °C 1007.7 hPa NNW 6.4 km/h 5.8 km/h 96 % 0.2 mm
09:04 9.2 °C 8.4 °C 1007.7 hPa NNW 11.1 km/h 8.7 km/h 95 % 0.2 mm
09:09 9.3 °C 8.6 °C 1007.7 hPa North 13 km/h 7.4 km/h 95 % 0.2 mm
09:14 9.4 °C 8.6 °C 1007.7 hPa NNW 11.3 km/h 6.8 km/h 95 % 0.2 mm
09:19 9.4 °C 8.6 °C 1007.7 hPa NNW 11.1 km/h 7.9 km/h 95 % 0.2 mm
09:24 9.4 °C 8.7 °C 1008 hPa NNW 9.3 km/h 5.6 km/h 95 % 0.2 mm
09:29 9.4 °C 8.6 °C 1008 hPa NNW 9.3 km/h 6.4 km/h 95 % 0 mm
09:34 9.4 °C 8.6 °C 1008 hPa North 13 km/h 10.5 km/h 95 % 0 mm
09:39 9.4 °C 8.7 °C 1008 hPa NNW 9.3 km/h 6.4 km/h 95 % 0 mm
09:44 9.5 °C 8.6 °C 1008 hPa NNW 14.8 km/h 9.8 km/h 94 % 0 mm
09:49 9.5 °C 8.6 °C 1008 hPa NNW 13 km/h 7.6 km/h 94 % 0 mm
09:54 9.5 °C 8.6 °C 1008 hPa NNW 13 km/h 4.5 km/h 94 % 0 mm
09:59 9.5 °C 8.6 °C 1008.4 hPa NW 16.7 km/h 11.9 km/h 94 % 0 mm
10:04 9.6 °C 8.6 °C 1008 hPa NW 13 km/h 7.1 km/h 93 % 0 mm
10:09 9.7 °C 8.6 °C 1008.4 hPa North 14.8 km/h 6.6 km/h 93 % 0 mm
10:14 9.8 °C 8.6 °C 1008.4 hPa NW 13 km/h 7.4 km/h 92 % 0 mm
10:19 10.2 °C 9 °C 1008.4 hPa NW 13 km/h 10.3 km/h 92 % 0 mm
10:24 10.6 °C 9.2 °C 1008.7 hPa NW 12.9 km/h 8.9 km/h 91 % 0 mm
10:29 10.7 °C 8.8 °C 1008.7 hPa North 16.7 km/h 10.3 km/h 88 % 0 mm
10:34 10.7 °C 8.7 °C 1008.7 hPa NW 18.5 km/h 8 km/h 87 % 0 mm
10:39 10.7 °C 8.5 °C 1008.7 hPa North 13 km/h 9.5 km/h 86 % 0 mm
10:44 10.8 °C 8.4 °C 1009 hPa NW 18.5 km/h 7.7 km/h 85 % 0 mm
10:49 11 °C 8.6 °C 1009 hPa NW 11.1 km/h 6 km/h 85 % 0 mm
10:54 11.1 °C 8.3 °C 1009 hPa NW 5.6 km/h 1.1 km/h 83 % 0 mm
10:59 11.4 °C 8.7 °C 1008.7 hPa North 18.5 km/h 9.3 km/h 83 % 0 mm
11:04 11.6 °C 8.4 °C 1009 hPa NW 20.9 km/h 12.6 km/h 81 % 0 mm
11:09 11.8 °C 8.7 °C 1009 hPa NW 18.5 km/h 12.6 km/h 81 % 0 mm
11:14 11.8 °C 8.5 °C 1009 hPa NW 17.7 km/h 11.1 km/h 80 % 0 mm
11:19 11.9 °C 8.3 °C 1009 hPa North 11.1 km/h 9.5 km/h 79 % 0 mm
11:24 12.1 °C 8.6 °C 1009 hPa NW 11.1 km/h 5.3 km/h 79 % 0 mm
11:29 12.2 °C 8.3 °C 1009 hPa NW 16.7 km/h 9.7 km/h 77 % 0 mm
11:34 12 °C 8.1 °C 1009 hPa NW 18.5 km/h 11.3 km/h 77 % 0 mm
11:39 11.8 °C 8.3 °C 1009 hPa WNW 18.5 km/h 12.7 km/h 79 % 0 mm
11:44 11.7 °C 8.3 °C 1009 hPa WNW 19.3 km/h 12.6 km/h 80 % 0 mm
11:49 11.7 °C 8.3 °C 1009 hPa WNW 16.7 km/h 12.9 km/h 80 % 0 mm
11:54 11.7 °C 8.4 °C 1009 hPa WNW 11.1 km/h 8.4 km/h 80 % 0 mm
11:59 11.9 °C 8.3 °C 1009 hPa WNW 16.1 km/h 13.4 km/h 79 % 0 mm
12:04 11.9 °C 8.4 °C 1009 hPa WNW 18.5 km/h 14.3 km/h 79 % 0 mm
12:09 11.9 °C 8.2 °C 1009 hPa WNW 14.8 km/h 16.7 km/h 78 % 0 mm
12:14 12 °C 8.3 °C 1009 hPa North 22.2 km/h 16.3 km/h 78 % 0 mm
12:19 12.1 °C 8.5 °C 1009 hPa WNW 16.7 km/h 13.2 km/h 79 % 0 mm
12:24 12.3 °C 8.6 °C 1009 hPa WNW 22.2 km/h 12.6 km/h 78 % 0 mm
12:29 12.5 °C 8.6 °C 1009 hPa WNW 16.7 km/h 14.3 km/h 77 % 0 mm
12:34 12.4 °C 8.5 °C 1009 hPa WSW 22.2 km/h 16.1 km/h 77 % 0 mm
12:39 12.4 °C 8.4 °C 1009.4 hPa WSW 27.8 km/h 20.3 km/h 77 % 0 mm
12:44 11.8 °C 8.6 °C 1009.4 hPa SW 19.3 km/h 17.4 km/h 81 % 0 mm
12:49 11.1 °C 8.5 °C 1009.4 hPa WSW 16.7 km/h 7.9 km/h 84 % 0 mm
12:54 10.8 °C 8.6 °C 1009.4 hPa WSW 14.8 km/h 10.9 km/h 86 % 0 mm
12:59 10.8 °C 8.8 °C 1009.4 hPa WSW 20.4 km/h 13.2 km/h 87 % 0 mm
13:04 11.1 °C 9.2 °C 1009.4 hPa WSW 16.7 km/h 10.5 km/h 88 % 0 mm
13:09 11.1 °C 8.7 °C 1009.4 hPa WSW 18.5 km/h 11.7 km/h 85 % 0.2 mm
13:14 11.4 °C 8.6 °C 1009.4 hPa WSW 27.8 km/h 12.9 km/h 83 % 0.2 mm
13:19 11.5 °C 8.3 °C 1009.4 hPa SW 20.4 km/h 16.7 km/h 81 % 0.2 mm
13:24 11.7 °C 7.9 °C 1009.4 hPa West 31.5 km/h 23.8 km/h 78 % 0.2 mm
13:29 11.9 °C 8.2 °C 1009.7 hPa SSW 31.5 km/h 25.4 km/h 78 % 0.2 mm
13:34 11.1 °C 7.6 °C 1009.7 hPa SW 27.8 km/h 15.6 km/h 79 % 0.2 mm
13:39 10.6 °C 7.6 °C 1010 hPa SW 25.9 km/h 20.4 km/h 82 % 0.2 mm
13:44 9.9 °C 7.2 °C 1010 hPa WSW 25.9 km/h 16.1 km/h 83 % 0.2 mm
13:49 9.7 °C 7.3 °C 1010 hPa WSW 29.6 km/h 19.5 km/h 85 % 0.2 mm
13:54 9.6 °C 7.6 °C 1010 hPa SW 20.4 km/h 14.2 km/h 87 % 0.2 mm
13:59 9.7 °C 7.4 °C 1010 hPa SW 20.4 km/h 14.8 km/h 86 % 0.2 mm
14:04 10.1 °C 7.7 °C 1010 hPa WSW 16.1 km/h 12.9 km/h 85 % 0.2 mm
14:09 10.7 °C 7.9 °C 1010.4 hPa SW 22.2 km/h 15.1 km/h 83 % 0 mm
14:14 10.8 °C 7.7 °C 1010.4 hPa North 22.2 km/h 10.9 km/h 81 % 0 mm
14:19 11.1 °C 7.6 °C 1010.4 hPa WSW 24.1 km/h 15.9 km/h 79 % 0 mm
14:24 11.3 °C 7.4 °C 1010.4 hPa WSW 25.9 km/h 18.7 km/h 77 % 0 mm
14:29 11.6 °C 7.3 °C 1010.4 hPa WSW 29.6 km/h 20.4 km/h 75 % 0 mm
14:34 11.6 °C 7.5 °C 1010.7 hPa WSW 24.1 km/h 21.6 km/h 76 % 0 mm
14:39 11.1 °C 6.7 °C 1010.7 hPa SW 33.3 km/h 21.1 km/h 74 % 0 mm
14:44 10.9 °C 6.5 °C 1010.7 hPa WSW 24.1 km/h 26.4 km/h 74 % 0 mm
14:49 11.1 °C 6.7 °C 1011.1 hPa WSW 22.5 km/h 18 km/h 74 % 0 mm
14:54 11.3 °C 6.4 °C 1011.1 hPa WSW 31.5 km/h 17.4 km/h 72 % 0 mm
14:59 11.4 °C 6.4 °C 1011.1 hPa North 22.2 km/h 11.4 km/h 71 % 0 mm
15:04 11.4 °C 6.1 °C 1011.1 hPa SW 22.2 km/h 11.9 km/h 70 % 0 mm
15:09 11.7 °C 6.4 °C 1011.4 hPa North 18.5 km/h 10.1 km/h 70 % 0 mm
15:14 11.9 °C 6.7 °C 1011.4 hPa SSW 19.3 km/h 13 km/h 70 % 0 mm
15:19 12.2 °C 6.7 °C 1011.4 hPa West 20.4 km/h 12.7 km/h 69 % 0 mm
15:24 12.3 °C 5.7 °C 1011.4 hPa SW 31.5 km/h 15.1 km/h 64 % 0 mm
15:29 11.9 °C 4.7 °C 1011.7 hPa WSW 35.2 km/h 17.7 km/h 61 % 0 mm
15:34 11.8 °C 4.8 °C 1011.7 hPa West 29.6 km/h 18.3 km/h 62 % 0 mm
15:39 11.8 °C 5.2 °C 1011.7 hPa SW 24.1 km/h 12.4 km/h 64 % 0 mm
15:44 11.6 °C 5 °C 1011.7 hPa North 29.6 km/h 17.1 km/h 64 % 0 mm
15:49 11.4 °C 4.9 °C 1011.7 hPa SW 25.9 km/h 19.2 km/h 64 % 0 mm
15:54 11.5 °C 5.4 °C 1011.7 hPa WSW 20.4 km/h 13.8 km/h 66 % 0 mm
15:59 11.4 °C 5.3 °C 1011.7 hPa SSW 25.9 km/h 17.9 km/h 66 % 0 mm
16:04 11.2 °C 5.3 °C 1012.1 hPa North 24.1 km/h 16.4 km/h 67 % 0 mm
16:09 11.3 °C 5.6 °C 1012.1 hPa SSW 16.7 km/h 11.9 km/h 68 % 0 mm
16:14 11.2 °C 5.6 °C 1012.1 hPa SW 14.8 km/h 9.7 km/h 68 % 0 mm
16:19 11.3 °C 5.6 °C 1012.4 hPa SW 18.5 km/h 13.7 km/h 68 % 0 mm
16:24 11.4 °C 5.1 °C 1012.4 hPa SW 18.5 km/h 13 km/h 65 % 0 mm
16:29 11.3 °C 5.2 °C 1012.8 hPa SSW 16.7 km/h 13.8 km/h 66 % 0 mm
16:34 11.1 °C 5.4 °C 1012.8 hPa SSW 18.5 km/h 14.8 km/h 68 % 0 mm
16:39 11 °C 5.3 °C 1012.8 hPa SW 27.8 km/h 15.3 km/h 68 % 0 mm
16:44 10.8 °C 5.1 °C 1013.1 hPa SW 25.9 km/h 11.3 km/h 68 % 0 mm
16:49 10.6 °C 4.9 °C 1013.1 hPa SW 16.7 km/h 11.9 km/h 68 % 0 mm
16:54 10.4 °C 4.6 °C 1013.1 hPa SW 24.1 km/h 10.8 km/h 67 % 0 mm
16:59 10.4 °C 4.5 °C 1013.1 hPa WSW 18.5 km/h 9.3 km/h 67 % 0 mm
17:04 10.4 °C 4.5 °C 1013.1 hPa SW 20.9 km/h 14.3 km/h 67 % 0 mm
17:09 10.3 °C 4.4 °C 1013.4 hPa SW 13 km/h 11.6 km/h 67 % 0 mm
17:14 10.2 °C 4.4 °C 1013.4 hPa WSW 14.8 km/h 8 km/h 67 % 0 mm
17:19 10 °C 4.2 °C 1013.4 hPa North 16.7 km/h 11.9 km/h 67 % 0 mm
17:24 9.9 °C 4.3 °C 1013.4 hPa WSW 11.3 km/h 9 km/h 68 % 0 mm
17:29 9.8 °C 4.3 °C 1013.8 hPa WSW 14.5 km/h 10 km/h 69 % 0 mm
17:34 9.7 °C 4.3 °C 1013.8 hPa WSW 11.3 km/h 6.4 km/h 69 % 0 mm
17:39 9.6 °C 4.3 °C 1013.8 hPa WSW 14.8 km/h 7.1 km/h 70 % 0 mm
17:44 9.5 °C 4.5 °C 1014.1 hPa WSW 9.7 km/h 9.5 km/h 71 % 0 mm
17:49 9.4 °C 4.4 °C 1014.1 hPa SW 13 km/h 4 km/h 71 % 0 mm
17:54 9.3 °C 4.3 °C 1014.1 hPa SW 11.1 km/h 6.4 km/h 71 % 0 mm
17:59 9.3 °C 4.3 °C 1014.1 hPa SW 11.3 km/h 12.4 km/h 71 % 0 mm
18:04 9.2 °C 4.2 °C 1014.1 hPa North 7.4 km/h 9.8 km/h 71 % 0 mm
18:09 9.2 °C 4.4 °C 1014.4 hPa SW 11.1 km/h 5.8 km/h 72 % 0 mm
18:14 9.1 °C 4.3 °C 1014.4 hPa SW 9.7 km/h 8.9 km/h 72 % 0 mm
18:19 9.1 °C 4.1 °C 1014.8 hPa SW 14.8 km/h 5.6 km/h 71 % 0 mm
18:24 9 °C 4 °C 1014.8 hPa North 9.7 km/h 4.7 km/h 71 % 0 mm
18:29 8.9 °C 3.9 °C 1014.8 hPa SW 9.3 km/h 8.2 km/h 71 % 0 mm
18:34 8.9 °C 3.5 °C 1014.8 hPa North 9.3 km/h 7.4 km/h 69 % 0 mm
18:39 8.8 °C 3.2 °C 1014.8 hPa North 16.7 km/h 6.6 km/h 68 % 0 mm
18:44 8.8 °C 3.1 °C 1015.1 hPa SW 14.8 km/h 10.6 km/h 67 % 0 mm
18:49 8.9 °C 2.9 °C 1015.1 hPa SW 16.7 km/h 5.1 km/h 66 % 0 mm
18:54 8.9 °C 2.9 °C 1015.1 hPa SW 16.7 km/h 9.2 km/h 66 % 0 mm
18:59 8.9 °C 2.7 °C 1015.1 hPa SW 13 km/h 7.9 km/h 65 % 0 mm
19:04 8.8 °C 2.8 °C 1015.5 hPa SW 6.4 km/h 4.8 km/h 66 % 0 mm
19:09 8.8 °C 2.8 °C 1015.5 hPa SW 5.6 km/h 4.2 km/h 66 % 0 mm
19:14 8.7 °C 2.7 °C 1015.5 hPa SW 5.6 km/h   66 % 0 mm
19:19 8.7 °C 2.7 °C 1015.5 hPa SW 13 km/h 8.4 km/h 66 % 0 mm
19:24 8.6 °C 2.6 °C 1015.5 hPa North 9.3 km/h 8.4 km/h 66 % 0 mm
19:29 8.6 °C 2.6 °C 1015.5 hPa SW 6.4 km/h 6 km/h 66 % 0 mm
19:34 8.5 °C 2.7 °C 1015.8 hPa SW 13 km/h 9.2 km/h 67 % 0 mm
19:39 8.5 °C 2.7 °C 1015.8 hPa SW 14.8 km/h 9 km/h 67 % 0 mm
19:44 8.5 °C 2.7 °C 1015.8 hPa SW 13 km/h 6.6 km/h 67 % 0 mm
19:49 8.4 °C 2.7 °C 1015.8 hPa SW 5.6 km/h 2.9 km/h 67 % 0 mm
19:54 8.3 °C 2.7 °C 1016.1 hPa WSW 3.7 km/h 3.5 km/h 68 % 0 mm
19:59 8.2 °C 2.6 °C 1016.1 hPa SW 5.6 km/h 4 km/h 68 % 0 mm
20:04 8.1 °C 2.6 °C 1016.1 hPa WSW 14.8 km/h 7.1 km/h 68 % 0 mm
20:09 8.4 °C 2.8 °C 1016.1 hPa WSW 9.3 km/h 7.9 km/h 68 % 0 mm
20:14 8.3 °C 3 °C 1016.1 hPa WSW 9.3 km/h 6 km/h 69 % 0 mm
20:19 8.3 °C 3 °C 1016.1 hPa WSW 9.7 km/h 5.8 km/h 69 % 0 mm
20:24 8.4 °C 3 °C 1016.1 hPa WSW 5.6 km/h 2.7 km/h 69 % 0 mm
20:29 8.3 °C 3 °C 1016.1 hPa WSW 5.6 km/h 2.6 km/h 69 % 0 mm
20:34 8.4 °C 3 °C 1016.1 hPa WSW 4.8 km/h 1 km/h 69 % 0 mm
20:39 8.4 °C 3 °C 1016.1 hPa WSW 3.7 km/h 2.1 km/h 69 % 0 mm
20:44 8.3 °C 3.1 °C 1016.1 hPa WSW 9.3 km/h 8.9 km/h 70 % 0 mm
20:49 8.4 °C 3.2 °C 1016.5 hPa WSW 5.6 km/h 3.7 km/h 70 % 0 mm
20:54 8.4 °C 3.3 °C 1016.5 hPa WSW 5.6 km/h 2.6 km/h 70 % 0 mm
20:59 8.4 °C 3.3 °C 1016.5 hPa WSW 5.6 km/h 1 km/h 70 % 0 mm
21:04 8.4 °C 3.4 °C 1016.5 hPa Calm     71 % 0 mm
21:09 8.3 °C 3.4 °C 1016.5 hPa Calm     71 % 0 mm
21:14 8.2 °C 3.2 °C 1016.5 hPa Calm     71 % 0 mm
21:19 8 °C 3.3 °C 1016.8 hPa Calm     72 % 0 mm
21:24 7.8 °C 3.3 °C 1016.8 hPa Calm     73 % 0 mm
21:29 7.7 °C 3.4 °C 1016.8 hPa WSW 3.7 km/h 2.4 km/h 74 % 0 mm
21:34 7.6 °C 3.3 °C 1016.8 hPa Calm     74 % 0 mm
21:39 7.6 °C 3.4 °C 1016.8 hPa Calm     75 % 0 mm
21:44 7.4 °C 3.3 °C 1016.8 hPa Calm     75 % 0 mm
21:49 7.4 °C 3.4 °C 1017.2 hPa Calm     76 % 0 mm
21:54 7.4 °C 3.4 °C 1017.2 hPa Calm     76 % 0 mm
21:59 7.3 °C 3.6 °C 1017.2 hPa WSW 3.7 km/h 0.2 km/h 77 % 0 mm
22:04 7.3 °C 3.5 °C 1017.2 hPa Calm     77 % 0 mm
22:09 7.2 °C 3.7 °C 1017.2 hPa Calm     78 % 0 mm
22:14 7.2 °C 3.6 °C 1017.2 hPa WSW 1.6 km/h 0.5 km/h 78 % 0 mm
22:19 6.9 °C 3.6 °C 1017.2 hPa WSW 3.2 km/h 0.3 km/h 79 % 0 mm
22:24 6.8 °C 3.6 °C 1017.5 hPa Calm     80 % 0 mm
22:29 6.7 °C 3.4 °C 1017.5 hPa Calm     80 % 0 mm
22:34 6.6 °C 3.5 °C 1017.5 hPa WSW 3.7 km/h 1.4 km/h 81 % 0 mm
22:39 6.5 °C 3.5 °C 1017.5 hPa WSW 3.7 km/h   81 % 0 mm
22:42 6.5 °C 3.7 °C 1017.5 hPa North 3.7 km/h 1.8 km/h 82 % 0 mm
22:54 6.6 °C 3.8 °C 1017.5 hPa WSW 3.7 km/h 1.1 km/h 82 % 0 mm
22:59 6.7 °C 3.8 °C 1017.5 hPa Calm     82 % 0 mm
23:04 6.7 °C 3.8 °C 1017.5 hPa North 3.7 km/h 1 km/h 82 % 0 mm
23:09 6.7 °C 4 °C 1017.5 hPa Calm     83 % 0 mm
23:14 6.7 °C 4 °C 1017.5 hPa Calm     83 % 0 mm
23:19 6.7 °C 4 °C 1017.5 hPa Calm     83 % 0 mm
23:24 6.7 °C 4.2 °C 1017.5 hPa Calm     84 % 0 mm
23:29 6.8 °C 4.3 °C 1017.5 hPa Calm     84 % 0 mm
23:34 6.7 °C 4.2 °C 1017.5 hPa Calm     84 % 0 mm
23:39 6.7 °C 4.2 °C 1017.5 hPa Calm     84 % 0 mm
23:44 6.6 °C 3.9 °C 1017.8 hPa North 5.6 km/h 0.6 km/h 83 % 0 mm
23:49 6.5 °C 3.8 °C 1017.8 hPa WSW 3.7 km/h 0.2 km/h 83 % 0 mm
23:54 6.4 °C 3.7 °C 1017.8 hPa Calm     83 % 0 mm
23:59 6.4 °C 3.7 °C 1017.8 hPa Calm     83 % 0 mm
Ararat Weather
Compliments of Weather Underground - 2.25 mb
Click here to send mail.


ABOUT

Live weather data from Ararat, Victoria, Australia, 3377
Data uploaded from Cumulus every 5 minutes to Weather Underground.
This site then downloads the raw data for formatting and display.
Metric and imperial data can be displayed. Graphs and historical data available.
Includes Sun and Moon times and rain image live from BOM.

Check out Ararat Weather on Facebook, Twitter and Google +

Help support ongoing costs by checking out the ads





Follow @AraratWeather